Regional Weather Roundup
Issued by NWS Huntsville, AL

Home | Current Version | Previous Version | Text Only | Print | Product List | Glossary On
Versions: 1 2 3 4 5 6 7 8 9 10 11 12 13 14 15 16 17 18 19 20 21 22 23 24 25 26 27 28 29 30 31 32 33 34 35 36 37 38 39 40 41 42 43 44 45 46 47 48 49 50
000
ASUS44 KHUN 212110
RWRHUN

WEATHER ROUNDUP FOR THE TENNESSEE VALLEY
NATIONAL WEATHER SERVICE HUNTSVILLE AL
400 PM CDT SUN SEP 21 2014

ALZ001>004-212200-
NORTHWEST ALABAMA

CITY           SKY/WX    TMP DP  RH WIND       PRES   REMARKS
COURTLAND HCN    N/A     88 N/A N/A W10         N/A
RUSSELLVILLE     N/A     84 N/A N/A MISG        N/A
SHOALS AIRPORT MOSUNNY   85  68  56 W12       29.95F
SHOALS TVA RES   N/A     86 N/A N/A MISG        N/A
$$

ALZ005>007-016-212200-
NORTH CENTRAL ALABAMA

CITY           SKY/WX    TMP DP  RH WIND       PRES   REMARKS
CULLMAN AG STN   N/A     86 N/A N/A W8          N/A
DECATUR AP     SUNNY     89  64  43 W12       29.94F HX  90
HUNTSVILLE AP  MOSUNNY   91  63  39 W9G18     29.93F HX  92
HUN NWS/UAH      N/A     87  61  41 W8          N/A
MERIDIANVILLE  SUNNY     86  57  37 W12G18    29.93F
VINEMONT AP    FAIR      87  64  45 SW9       29.98F
$$

ALZ008>010-212200-
NORTHEAST ALABAMA

CITY           SKY/WX    TMP DP  RH WIND       PRES   REMARKS
ALBERTVILLE    PTSUNNY   86  70  58 W10G21    29.95F HX  90
FORT PAYNE     SUNNY     86  59  39 W10       29.93F
SCOTTSBORO AP  MOSUNNY   86  64  48 W6        29.93F
SCOTTSBORO HCN   N/A     86 N/A N/A MISG        N/A
VALLEY HEAD      N/A     84 N/A N/A MISG        N/A
$$

TNZ076-096-097-212200-
SOUTHEASTERN MIDDLE TENNESSEE

CITY           SKY/WX    TMP DP  RH WIND       PRES   REMARKS
FAYETTEVILLE   MOSUNNY   84  64  51 W10       29.93F
TULLAHOMA      SUNNY     82  66  57 W12       29.94F
WINCHESTER     MOSUNNY   84  66  54 W7        29.93F
$$

...SURROUNDING SITES...

CITY           SKY/WX    TMP DP  RH WIND       PRES   REMARKS
ATLANTA        MOSUNNY   87  59  38 W10       29.96F
ANNISTON       MOSUNNY   87  60  40 SW10      29.96F
BIRMINGHAM     MOSUNNY   89  61  38 W12       29.97F
CHATTANOOGA    PTSUNNY   87  64  46 SW13      29.91F
CORINTH        FAIR      88  68  51 W12       29.94F HX  91
DALTON         MOSUNNY   84  64  51 SW5       29.92F
GADSDEN        MOSUNNY   88  61  40 W8        29.94F
GOLDEN TRNGL   NOT AVBL
HALEYVILLE     FAIR      87  65  47 W9        30.00F
JACKSON TN     MOSUNNY   85  68  56 NW10      29.96F
LEWISBURG      PTSUNNY   84  69  60 W5        29.93F
MEMPHIS        PTSUNNY   89  69  51 NW12      29.96F HX  93
MURFREESBORO   FAIR      80  69  69 W10       29.91
NASHVILLE      MOSUNNY   88  63  43 NW15G22   29.91F
OXFORD MS      FAIR      86  66  51 W7        29.98F
ROME           MOSUNNY   88  63  43 W10G17    29.92F
SAVANNAH       PTSUNNY   84  70  61 W10       29.95S
TUPELO         MOSUNNY   89  67  47 W9        29.95F HX  92
TUSCALOOSA     SUNNY     91  61  36 NW8       29.95F HX  91
$$

...GULF COAST WEATHER...

CITY           SKY/WX    TMP DP  RH WIND       PRES   REMARKS
GULFPORT       MOSUNNY   87  68  52 S8        29.97F HX  90
PASCAGOULA     MOSUNNY   85  70  60 SE7       29.97F
MOBILE         MOSUNNY   89  66  46 N6        29.98F HX  91
GULF SHORES    CLEAR     85  67  56 SE9       29.97F
PENSACOLA      MOSUNNY   86  66  51 SE10      29.96F
DESTIN         SUNNY     85  67  54 VRB7      29.96F
PANAMA CITY    SUNNY     85  72  66 SW9       29.96F HX  91
APPALACHICOLA  SUNNY     85  67  54 SE9       29.96F
$$




USA.gov is the U.S. government's official web portal to all federal, state and local government web resources and services.